Miscellaneous Local Product
Issued by NWS North Platte, NE

Home | Current Version | Previous Version | Graphics & Text | Print | Product List | Glossary On
Versions: 1 2 3 4 5 6 7 8 9 10 11 12 13 14 15 16 17 18 19 20 21 22 23 24 25 26 27 28 29 30 31 32 33 34 35 36 37 38 39 40 41 42 43 44 45 46 47 48 49 50
000
AXUS43 KLBF 081410
MISLBF


WESTERN AND NORTH CENTRAL NEBRASKA HOURLY WEATHER ROUNDUP
NATIONAL WEATHER SERVICE NORTH PLATTE NE
800 AM CST THU DEC 08 2016

NOTE: "FAIR" INDICATES FEW OR NO CLOUDS BELOW 12,000 FEET WITH NO
SIGNIFICANT WEATHER AND/OR OBSTRUCTIONS TO VISIBILITY.

NOTE: STATIONS NOT REPORTING VARIABLES SUCH AS SKY/WEATHER OR
PRESSURE ARE PROVIDED BY RAWS AND APRS NETWORKS AND ARE NOT UNDER
NATIONAL WEATHER SERVICE QUALITY CONTROL.

...OBSERVATIONS IN AND NEAR THE EASTERN PANHANDLE OF NEBRASKA...

CITY           SKY/WX    TMP DP  RH WIND       PRES   REMARKS
PINE RIDGE     CLOUDY   -16 -20  82 E3        30.56R
CHADRON        CLOUDY    -2  -9  72 SW6       30.58R WCI -14
ALLIANCE       CLOUDY   -12 -17  78 W7        30.50S WCI -27
SIDNEY         CLOUDY   -12 -17  78 NW9       30.49R WCI -30
CRESCENT LAKE    N/A     -6 -11  78 W7          N/A  WCI -20
$$

...OBSERVATIONS IN NORTHERN NEBRASKA AND FAR SOUTHERN SOUTH DAKOTA...

CITY           SKY/WX    TMP DP  RH WIND       PRES   REMARKS
WINNER         CLOUDY     7  -2  66 NW20G28   30.61R WCI -13
VALENTINE      CLEAR      2  -5  72 NW10      30.60R WCI -14
THEDFORD       CLEAR      3  -4  74 NW9       30.57R WCI -12
AINSWORTH      CLEAR      4  -2  74 NW13      30.57R WCI -12
O`NEILL        CLEAR      7   0  73 NW17G28   30.58R WCI -11
ORD            CLEAR      7  -3  64 NW15G25   30.58R WCI -10
BROKEN BOW     CLEAR      6  -2  69 NW18      30.56R WCI -13
VALENTINE NWR    N/A      2  -6  69 NW12G21     N/A  WCI -14
BUTTE            N/A      5   0  79 W17G24      N/A  WCI -14
HALSEY           N/A      2  -7  66 NW7G15      N/A  WCI -10
CHAMBERS         N/A      5 -10  50 N6          N/A  WCI  -6
EWING            N/A      7   1  77 NW12G20     N/A  WCI  -8
$$

...OBSERVATIONS IN SOUTHWEST NEBRASKA AND FAR NORTHEAST COLORADO...

CITY           SKY/WX    TMP DP  RH WIND       PRES   REMARKS
WRAY           FAIR      -8 -13  77 SW3       30.55
HOLYOKE        FAIR       1  -8  66 W5        30.53S WCI  -8
IMPERIAL       CLOUDY    -3 -10  72 NW10      30.57R WCI -20
OGALLALA       CLEAR      1  -6  72 NW9       30.57R WCI -14
NORTH PLATTE   CLEAR      0  -6  76 NW9       30.60R WCI -15
MCCOOK         CLOUDY    -5 -10  79 SW9       30.63R WCI -22
LEXINGTON      CLEAR      4  -3  74 NW12      30.60R WCI -12
STAPLETON        N/A      1  -5  76 CALM        N/A
GOTHENBURG       N/A     -1  -7  76 W5          N/A  WCI -11
CALLAWAY         N/A      3  -3  77 NW16        N/A  WCI -16
$$

...OBSERVATIONS IN CENTRAL LINCOLN COUNTY AREA...

CITY           SKY/WX    TMP DP  RH WIND       PRES   REMARKS
N.P. AIRPORT   CLEAR      0  -6  76 NW9       30.60R WCI -15
N.P. DOWNTOWN    N/A     -2  -6  80 CALM        N/A
N.P. SOUTHEAST   N/A     -2  -7  78 CALM        N/A
N.P. HILLCREST   N/A     -2  -6  81 NW6         N/A  WCI -14
$$

...SOME OBSERVATIONS FROM AROUND THE REGION...

CITY           SKY/WX    TMP DP  RH WIND       PRES   REMARKS
LARAMIE        CLOUDY   -16 -21  78 S3        30.21S
CHEYENNE       CLOUDY   -12 -17  78 W6        30.30S WCI -26
DENVER         CLOUDY    -4  -9  79 SW5       30.38R WCI -15
AKRON          CLOUDY    -6 -12  75 W8        30.45R WCI -21
SCOTTSBLUFF    CLOUDY    -9 -14  78 NW9       30.53R WCI -26
RAPID CITY     CLEAR     -5 -11  75 N6        30.56R WCI -18
BISMARCK       CLOUDY     2  -3  80 W16       30.61R WCI -18
PIERRE         MOCLDY     6  -1  73 NW21G28   30.61R WCI -14
SIOUX FALLS    PTCLDY     7   3  84 NW17      30.49R WCI -12
OMAHA          PTCLDY    11   3  70 NW17      30.57R WCI  -6
GRAND ISLAND   CLEAR      7   0  73 NW13      30.60R WCI  -9
KANSAS CITY    CLEAR     14   4  64 NW12      30.57R WCI   0
WICHITA        PTCLDY    15   5  64 N13       30.66R WCI   1
OKLAHOMA CITY  MOCLDY    22  14  71 N16G23    30.64F WCI   8
DALLAS         CLOUDY    32  22  66 N20G31    30.56R WCI  20
AMARILLO       CLOUDY    15   8  73 N12       30.57R WCI   2
DODGE CITY     CLEAR      4  -1  80 N12       30.61R WCI -12
HAYS           CLEAR      6   0  76 W7        30.66R WCI  -6
GOODLAND       CLOUDY    -5 -11  75 N9        30.54F WCI -22
$$




USA.gov is the U.S. government's official web portal to all federal, state and local government web resources and services.